EA4CZ-13 Weather Reports


time (UTC)temp
C
wind
direction
speed
KPH
gust
KPH
rain 1hr
cm
rain 24hr
cm
rain mn
cm
humidity
%
barometer
mb
20260510211116 11 147 0.0 0.0 0.00 0.00 0.69 87 1011.5
20260510210616 11 147 0.0 0.0 0.00 0.00 0.69 85 1011.5
20260510210116 11 147 0.0 1.6 0.00 0.00 0.69 84 1011.2
20260510205616 12 159 0.0 0.0 0.00 0.00 0.69 83 1011.2
20260510205116 12 174 0.0 1.6 0.00 0.00 0.69 83 1011.5
20260510204616 12 174 1.6 3.2 0.00 0.00 0.69 82 1011.2
20260510204118 12 158 3.2 3.2 0.00 0.00 0.69 82 1011.2
20260510203616 12 188 4.8 4.8 0.00 0.00 0.69 82 1011.2
20260510203116 12 201 4.8 8.0 0.00 0.00 0.69 81 1011.2
20260510202616 12 160 8.0 9.7 0.00 0.00 0.69 82 1011.2
20260510202116 12 174 4.8 4.8 0.00 0.00 0.69 82 1011.2
20260510201616 12 177 4.8 4.8 0.00 0.00 0.69 82 1011.2
20260510201116 12 174 4.8 4.8 0.00 0.00 0.69 82 1010.8
20260510200616 12 177 3.2 4.8 0.00 0.00 0.69 82 1010.8
20260510200116 12 176 1.6 1.6 0.00 0.00 0.69 82 1010.8
20260510195616 12 218 1.6 3.2 0.00 0.00 0.69 81 1010.8
20260510195116 12 161 3.2 4.8 0.00 0.00 0.69 81 1010.8
20260510194616 12 178 4.8 4.8 0.00 0.00 0.69 83 1010.8
20260510194115 12 204 4.8 6.4 0.00 0.00 0.69 83 1010.8
20260510193616 12 194 4.8 6.4 0.00 0.00 0.69 82 1010.5
20260510193116 12 193 4.8 4.8 0.00 0.00 0.69 80 1010.5
20260510192616 12 176 4.8 8.0 0.00 0.00 0.69 79 1010.5
20260510192116 13 171 3.2 3.2 0.00 0.00 0.69 78 1010.5
20260510191615 13 165 3.2 3.2 0.00 0.00 0.69 76 1010.5
20260510191115 13 223 3.2 3.2 0.00 0.00 0.69 74 1010.5
20260510190615 13 187 6.4 8.0 0.00 0.00 0.69 73 1010.2
20260510190115 13 201 4.8 8.0 0.00 0.00 0.69 73 1010.2
20260510185615 13 213 6.4 11.3 0.00 0.00 0.69 72 1009.8
20260510185116 14 228 8.0 9.7 0.00 0.00 0.69 70 1010.2
20260510184615 14 213 4.8 6.4 0.00 0.00 0.69 69 1009.8
20260510184115 14 205 4.8 6.4 0.00 0.00 0.69 70 1009.8
20260510183615 14 236 6.4 8.0 0.00 0.00 0.69 69 1009.8
20260510183115 14 218 8.0 12.9 0.00 0.00 0.69 69 1009.5
20260510182615 14 216 6.4 8.0 0.00 0.00 0.69 70 1009.8
20260510182115 14 265 6.4 9.7 0.00 0.00 0.69 69 1009.8
20260510181615 14 221 9.7 14.5 0.00 0.00 0.69 68 1009.8
20260510181116 14 235 8.0 12.9 0.00 0.00 0.69 69 1009.5
20260510180615 15 236 9.7 14.5 0.00 0.00 0.69 69 1009.5
20260510180115 14 203 4.8 8.0 0.00 0.00 0.69 69 1009.5
20260510175615 14 215 9.7 11.3 0.00 0.00 0.69 69 1009.8
20260510175115 14 194 4.8 8.0 0.00 0.00 0.69 70 1009.8
20260510174615 14 218 4.8 6.4 0.00 0.00 0.69 70 1009.5
20260510174115 14 237 8.0 11.3 0.00 0.00 0.69 68 1009.8
20260510173615 15 233 9.7 14.5 0.00 0.00 0.69 66 1009.8
20260510173115 15 223 12.9 17.7 0.00 0.00 0.69 67 1009.8
20260510172115 15 247 19.3 24.1 0.00 0.00 0.69 69 1009.8
20260510171615 14 241 9.7 12.9 0.00 0.00 0.69 70 1009.8
20260510171115 15 236 9.7 11.3 0.00 0.00 0.69 67 1009.8
20260510170615 15 232 11.3 22.5 0.00 0.00 0.69 66 1009.8
20260510170115 15 240 8.0 11.3 0.00 0.00 0.69 66 1009.8
20260510165615 15 251 6.4 11.3 0.00 0.00 0.69 67 1009.8
20260510165115 15 238 11.3 16.1 0.00 0.00 0.69 68 1009.5
20260510164615 15 243 8.0 12.9 0.00 0.00 0.69 68 1009.5
20260510164115 15 235 4.8 6.4 0.00 0.00 0.69 68 1009.5
20260510163616 15 240 4.8 6.4 0.00 0.00 0.69 67 1009.5
20260510162615 15 232 6.4 8.0 0.00 0.00 0.69 65 1009.5
20260510162115 15 214 9.7 11.3 0.00 0.00 0.69 66 1009.8
20260510161615 15 232 9.7 12.9 0.00 0.00 0.69 65 1009.5
20260510161115 16 238 4.8 11.3 0.00 0.00 0.69 66 1009.5
20260510160616 15 233 12.9 19.3 0.00 0.00 0.69 65 1009.8
20260510160115 15 206 16.1 20.9 0.00 0.00 0.69 66 1009.8
20260510155614 15 210 16.1 20.9 0.00 0.00 0.69 66 1009.8
20260510155115 15 238 9.7 12.9 0.00 0.00 0.69 66 1009.8
20260510154614 14 213 16.1 19.3 0.00 0.00 0.69 68 1009.5
20260510154117 15 252 11.3 12.9 0.00 0.00 0.69 67 1009.8
20260510153615 15 239 11.3 16.1 0.00 0.00 0.69 67 1009.5
20260510153123 15 247 11.3 16.1 0.00 0.00 0.69 66 1009.5
20260510152614 15 190 4.8 6.4 0.00 0.00 0.69 66 1009.5
20260510152114 16 231 17.7 22.5 0.00 0.00 0.69 62 1009.5
20260510151614 16 231 11.3 16.1 0.00 0.00 0.69 64 1009.5
20260510151114 15 238 16.1 19.3 0.00 0.00 0.69 61 1009.5
20260510150614 16 226 11.3 16.1 0.00 0.00 0.69 62 1009.8
20260510150114 15 186 9.7 12.9 0.00 0.00 0.69 65 1009.8
20260510145615 15 221 6.4 8.0 0.00 0.00 0.69 64 1009.8
20260510145114 15 231 9.7 14.5 0.00 0.00 0.69 66 1010.2
20260510144614 15 195 4.8 8.0 0.00 0.00 0.69 70 1009.8
20260510144114 15 196 6.4 8.0 0.00 0.00 0.69 71 1010.2
20260510143614 15 227 11.3 12.9 0.00 0.00 0.69 69 1009.8
20260510143114 15 210 4.8 9.7 0.00 0.00 0.69 71 1009.8
20260510142614 15 224 8.0 14.5 0.00 0.00 0.69 70 1009.8
20260510142114 15 269 12.9 14.5 0.00 0.00 0.69 71 1010.2
20260510141614 14 237 6.4 8.0 0.00 0.00 0.69 72 1010.2
20260510141114 13 200 12.9 16.1 0.00 0.00 0.69 71 1010.5
20260510140614 13 236 12.9 14.5 0.00 0.00 0.69 73 1010.5
20260510140114 13 230 11.3 14.5 0.00 0.00 0.69 74 1010.5
20260510135614 13 261 12.9 14.5 0.00 0.00 0.69 77 1010.5
20260510135114 13 212 8.0 11.3 0.00 0.00 0.66 81 1010.8
20260510134614 13 231 8.0 12.9 0.00 0.00 0.66 82 1010.5
20260510134114 13 201 6.4 14.5 0.00 0.00 0.66 81 1010.5
20260510133614 13 228 12.9 19.3 0.00 0.00 0.66 81 1010.5
20260510133114 13 180 8.0 11.3 0.00 0.00 0.66 83 1010.2
20260510132614 13 202 8.0 11.3 0.00 0.00 0.66 83 1010.5
20260510132114 12 175 9.7 14.5 0.00 0.00 0.66 84 1010.2
20260510131614 12 218 4.8 6.4 0.00 0.00 0.66 85 1010.2
20260510131114 12 216 6.4 8.0 0.00 0.00 0.66 86 1010.5
20260510130614 12 214 8.0 11.3 0.00 0.00 0.66 87 1010.2
20260510130114 11 233 9.7 11.3 0.00 0.00 0.66 88 1010.5
20260510125614 12 207 8.0 9.7 0.00 0.00 0.66 90 1010.2
20260510125114 11 178 6.4 9.7 0.00 0.00 0.66 92 1010.2
20260510124614 11 225 4.8 6.4 0.00 0.00 0.66 93 1010.2
20260510123613 11 243 6.4 6.4 0.00 0.00 0.66 93 1010.5
20260510123114 11 237 8.0 9.7 0.00 0.00 0.66 91 1010.2
20260510122613 11 247 4.8 6.4 0.00 0.00 0.64 89 1009.8
20260510122113 11 222 4.8 6.4 0.00 0.00 0.64 91 1010.2
20260510121613 11 220 8.0 9.7 0.00 0.00 0.64 88 1010.2
20260510120613 12 175 6.4 8.0 0.00 0.00 0.61 84 1010.5
20260510115613 13 190 9.7 14.5 0.00 0.00 0.61 82 1010.2
20260510115113 13 224 6.4 9.7 0.00 0.00 0.61 83 1010.2
20260510114613 13 201 6.4 9.7 0.00 0.00 0.61 83 1010.2
20260510114113 12 184 6.4 9.7 0.00 0.00 0.61 85 1010.2
20260510113613 12 202 6.4 8.0 0.00 0.00 0.61 86 1010.2
20260510112613 12 234 8.0 9.7 0.00 0.00 0.61 90 1010.5
20260510112113 11 239 8.0 12.9 0.00 0.00 0.61 91 1010.5
20260510111613 11 180 6.4 9.7 0.00 0.00 0.61 95 1010.5
20260510111113 11 238 11.3 14.5 0.00 0.00 0.61 96 1010.5
20260510110618 11 178 4.8 6.4 0.00 0.00 0.61 97 1010.5
20260510110113 11 211 4.8 6.4 0.00 0.00 0.61 97 1010.5
20260510105613 11 257 4.8 4.8 0.00 0.00 0.61 98 1010.5
20260510105113 11 176 3.2 4.8 0.00 0.00 0.61 98 1010.5
20260510104613 11 205 8.0 9.7 0.00 0.00 0.61 98 1010.5
20260510104113 11 248 4.8 4.8 0.00 0.00 0.61 98 1010.5
20260510103613 11 247 9.7 12.9 0.00 0.00 0.61 98 1010.5
20260510103113 11 232 4.8 4.8 0.00 0.00 0.61 98 1010.5
20260510102613 11 226 6.4 11.3 0.00 0.00 0.61 98 1010.2
20260510102113 11 213 3.2 3.2 0.00 0.00 0.61 99 1010.5
20260510101613 11 221 6.4 9.7 0.00 0.00 0.61 99 1010.5
20260510101113 11 235 4.8 6.4 0.00 0.00 0.61 99 1010.2
20260510100613 10 228 8.0 9.7 0.00 0.00 0.61 98 1010.5
20260510100113 10 234 4.8 6.4 0.00 0.00 0.61 98 1010.5
20260510095613 10 254 9.7 11.3 0.00 0.00 0.58 98 1010.2
20260510095113 10 238 16.1 20.9 0.00 0.00 0.53 98 1010.2
20260510094613 12 249 9.7 12.9 0.00 0.00 0.30 94 1010.2
20260510094113 12 238 9.7 12.9 0.00 0.00 0.28 90 1009.8
20260510093613 12 187 12.9 20.9 0.00 0.00 0.25 91 1009.5
20260510093113 12 185 6.4 8.0 0.00 0.00 0.25 92 1009.5
20260510092612 12 177 9.7 11.3 0.00 0.00 0.25 93 1009.5
20260510092113 12 151 9.7 14.5 0.00 0.00 0.25 93 1009.1
20260510091613 12 168 6.4 14.5 0.00 0.00 0.25 93 1009.1
20260510091112 12 156 4.8 8.0 0.00 0.00 0.25 95 1009.5
20260510090612 12 155 9.7 12.9 0.00 0.00 0.25 96 1009.5
20260510090112 11 137 4.8 6.4 0.00 0.00 0.25 97 1009.5
20260510085612 11 130 8.0 11.3 0.00 0.00 0.25 97 1009.5
20260510085112 11 123 4.8 4.8 0.00 0.00 0.25 97 1009.5
20260510084612 11 162 4.8 8.0 0.00 0.00 0.25 98 1009.5
20260510084112 12 191 9.7 11.3 0.00 0.00 0.25 98 1009.8
20260510083612 11 165 16.1 19.3 0.00 0.00 0.25 99 1010.2
20260510083112 11 155 4.8 6.4 0.00 0.00 0.25 99 1009.8
20260510082613 11 109 4.8 6.4 0.00 0.00 0.25 99 1010.2
20260510082112 11 164 4.8 4.8 0.00 0.00 0.25 99 1009.8
20260510081612 11 195 6.4 9.7 0.00 0.00 0.25 99 1010.2
20260510081112 11 143 4.8 6.4 0.00 0.00 0.23 99 1010.2
20260510080612 11 190 4.8 6.4 0.00 0.00 0.23 99 1010.2
20260510080112 11 159 4.8 4.8 0.00 0.00 0.23 99 1010.2
20260510075612 11 187 8.0 9.7 0.00 0.00 0.23 99 1010.2
20260510075112 11 139 4.8 6.4 0.00 0.00 0.23 99 1010.2
20260510074612 11 138 1.6 3.2 0.00 0.00 0.23 99 1009.8
20260510074112 11 108 1.6 1.6 0.00 0.00 0.23 99 1010.2
20260510073612 10 120 3.2 4.8 0.00 0.00 0.23 99 1010.2
20260510073112 10 147 0.0 0.0 0.00 0.00 0.18 99 1010.5
20260510072613 10 137 0.0 0.0 0.00 0.00 0.13 99 1010.2
20260510072112 10 138 0.0 0.0 0.00 0.00 0.13 99 1010.2
20260510071612 10 142 0.0 0.0 0.00 0.00 0.13 99 1010.5
20260510071112 10 163 0.0 1.6 0.00 0.00 0.13 99 1010.2
20260510070612 10 166 1.6 1.6 0.00 0.00 0.13 99 1010.2
20260510070112 10 160 0.0 0.0 0.00 0.00 0.13 99 1010.2
20260510065612 10 142 0.0 0.0 0.00 0.00 0.13 99 1010.2
20260510065112 10 160 1.6 1.6 0.00 0.00 0.13 99 1010.2
20260510064612 10 150 0.0 0.0 0.00 0.00 0.13 99 1010.2
20260510064112 10 160 1.6 1.6 0.00 0.00 0.13 99 1010.2
20260510063612 10 133 0.0 0.0 0.00 0.00 0.13 99 1009.8
20260510063112 10 131 0.0 0.0 0.00 0.00 0.13 99 1010.2
20260510062612 10 129 0.0 0.0 0.00 0.00 0.13 99 1010.2
20260510062112 10 137 0.0 1.6 0.00 0.00 0.13 99 1009.8
20260510061611 10 115 0.0 1.6 0.00 0.00 0.13 99 1009.8
20260510061111 9 122 0.0 1.6 0.00 0.00 0.13 99 1009.8
20260510060612 9 109 1.6 1.6 0.00 0.00 0.13 99 1009.8
20260510060111 9 112 1.6 1.6 0.00 0.00 0.13 99 1010.2
20260510055611 9 123 0.0 0.0 0.00 0.00 0.13 99 1009.8
20260510055111 9 120 0.0 1.6 0.00 0.00 0.13 99 1009.8
20260510054612 9 111 0.0 1.6 0.00 0.00 0.13 99 1009.8
20260510054111 9 125 0.0 0.0 0.00 0.00 0.13 99 1009.8
20260510053611 9 120 0.0 1.6 0.00 0.00 0.13 99 1009.8
20260510053111 9 116 1.6 1.6 0.00 0.00 0.13 99 1009.8
20260510052611 9 118 0.0 0.0 0.00 0.00 0.13 99 1009.8
20260510052111 9 127 0.0 0.0 0.00 0.00 0.13 99 1010.2
20260510051611 9 121 0.0 0.0 0.00 0.00 0.13 99 1010.2
20260510050611 9 123 0.0 0.0 0.00 0.00 0.13 99 1010.2
20260510050111 9 126 0.0 0.0 0.00 0.00 0.13 99 1009.8
20260510045611 8 126 0.0 0.0 0.00 0.00 0.13 99 1009.8
20260510045111 8 130 0.0 0.0 0.00 0.00 0.13 99 1009.8
20260510044611 8 129 0.0 0.0 0.00 0.00 0.13 99 1009.8
20260510044111 8 118 0.0 0.0 0.00 0.00 0.13 99 1009.5
20260510043611 8 127 0.0 0.0 0.00 0.00 0.13 99 1009.8
20260510043111 8 122 0.0 0.0 0.00 0.00 0.13 99 1009.8
20260510042611 8 120 1.6 1.6 0.00 0.00 0.13 99 1009.8
20260510042111 8 125 0.0 0.0 0.00 0.00 0.13 99 1009.8
20260510041611 9 122 1.6 1.6 0.00 0.00 0.13 99 1010.2
20260510041111 9 131 1.6 1.6 0.00 0.00 0.13 99 1009.8
20260510040611 9 137 0.0 0.0 0.00 0.00 0.13 99 1009.8
20260510040111 9 156 0.0 0.0 0.00 0.00 0.13 99 1010.2
20260510035611 9 157 0.0 0.0 0.00 0.00 0.13 99 1010.2
20260510035111 10 158 0.0 0.0 0.00 0.00 0.13 99 1010.2
20260510034611 10 165 0.0 1.6 0.00 0.00 0.13 99 1010.2
20260510034111 10 194 3.2 3.2 0.00 0.00 0.13 99 1010.2
20260510033611 10 160 0.0 0.0 0.00 0.00 0.13 99 1010.2
20260510033111 10 175 1.6 1.6 0.00 0.00 0.13 99 1010.2
20260510032611 10 136 0.0 0.0 0.00 0.00 0.10 99 1010.2
20260510032111 10 163 1.6 1.6 0.00 0.00 0.10 99 1010.2
20260510031611 10 225 1.6 3.2 0.00 0.00 0.08 99 1010.2
20260510031111 10 162 1.6 1.6 0.00 0.00 0.08 99 1010.2
20260510030611 10 143 1.6 3.2 0.00 0.00 0.08 99 1010.2
20260510030111 10 167 3.2 3.2 0.00 0.00 0.08 99 1010.5
20260510025611 10 144 4.8 6.4 0.00 0.00 0.08 99 1010.2
20260510025111 10 158 3.2 3.2 0.00 0.00 0.05 99 1010.2
20260510024611 10 159 1.6 3.2 0.00 0.00 0.05 99 1010.2
20260510024111 10 134 0.0 0.0 0.00 0.00 0.05 99 1010.2
20260510023611 10 122 1.6 1.6 0.00 0.00 0.05 99 1010.2
20260510023110 10 136 0.0 0.0 0.00 0.00 0.05 99 1010.5
20260510022611 10 125 0.0 0.0 0.00 0.00 0.05 99 1010.2
20260510021610 10 137 0.0 0.0 0.00 0.00 0.05 99 1010.2
20260510021110 10 137 0.0 0.0 0.00 0.00 0.05 99 1010.5
20260510020610 10 150 0.0 0.0 0.00 0.00 0.05 99 1010.5
20260510020110 10 128 0.0 0.0 0.00 0.00 0.03 99 1010.2
20260510015610 10 127 0.0 0.0 0.00 0.00 0.03 99 1010.5
20260510015110 10 127 0.0 0.0 0.00 0.00 0.03 99 1010.2
20260510014610 10 128 0.0 0.0 0.00 0.00 0.03 99 1010.2
20260510014110 10 129 0.0 0.0 0.00 0.00 0.03 99 1010.2
20260510013610 10 151 0.0 0.0 0.00 0.00 0.03 99 1010.5
20260510013110 10 139 0.0 1.6 0.00 0.00 0.03 99 1010.5
20260510012610 10 151 0.0 0.0 0.00 0.00 0.03 99 1010.2
20260510012110 10 143 0.0 0.0 0.00 0.00 0.03 99 1010.2
20260510011610 10 139 1.6 1.6 0.00 0.00 0.03 99 1010.5
20260510011110 10 158 0.0 0.0 0.00 0.00 0.03 99 1010.5
20260510010610 10 158 0.0 0.0 0.00 0.00 0.03 99 1010.5
20260510010110 10 193 1.6 3.2 0.00 0.00 0.03 99 1010.5
20260510005610 10 216 3.2 3.2 0.00 0.00 0.03 99 1010.5
20260510005110 10 156 0.0 0.0 0.00 0.00 0.03 99 1010.5
20260510004610 10 162 1.6 1.6 0.00 0.00 0.03 99 1010.5
20260510004110 10 158 0.0 0.0 0.00 0.00 0.03 99 1010.5
20260510003610 10 223 1.6 3.2 0.00 0.00 0.03 99 1010.8
20260510003110 10 157 0.0 0.0 0.00 0.00 0.03 99 1010.5
20260510002610 10 179 1.6 1.6 0.00 0.00 0.03 99 1010.5
20260510002109 10 150 0.0 0.0 0.00 0.00 0.03 99 1010.5
20260510001608 10 182 1.6 1.6 0.00 0.00 0.03 99 1010.5
20260510001108 10 163 0.0 1.6 0.00 0.00 0.03 99 1010.5
20260510000608 10 168 0.0 0.0 0.00 0.00 0.03 99 1010.5
20260510000108 10 171 1.6 1.6 0.00 0.00 0.03 99 1010.5
20260509235608 10 162 0.0 0.0 0.00 0.00 0.03 99 1010.5
20260509235108 10 205 1.6 3.2 0.00 0.00 0.03 99 1010.5
20260509234608 10 202 3.2 3.2 0.00 0.00 0.03 99 1010.5
20260509234108 10 158 0.0 0.0 0.00 0.00 0.03 99 1010.5
20260509233608 10 212 3.2 3.2 0.00 0.00 0.03 99 1010.5
20260509233108 10 190 1.6 1.6 0.00 0.00 0.03 99 1010.5
20260509232608 10 176 1.6 1.6 0.00 0.00 0.03 99 1010.8
20260509232108 10 165 1.6 3.2 0.00 0.00 0.03 99 1010.5
20260509231108 10 173 1.6 1.6 0.00 0.00 0.03 99 1010.8
20260509230608 10 201 4.8 4.8 0.00 0.00 0.03 99 1010.8
20260509230108 10 163 1.6 1.6 0.00 0.00 0.03 99 1010.5
20260509225608 10 195 4.8 4.8 0.00 0.00 0.03 99 1010.5
20260509225108 10 150 3.2 3.2 0.00 0.00 0.03 99 1010.5
20260509224608 10 204 4.8 4.8 0.00 0.00 0.03 99 1010.5
20260509224108 10 168 4.8 4.8 0.00 0.00 0.03 99 1010.5
20260509223608 10 173 4.8 4.8 0.00 0.00 0.03 99 1010.5
20260509223108 10 155 0.0 0.0 0.00 0.00 0.03 99 1010.5
20260509222608 10 188 4.8 4.8 0.00 0.00 0.03 99 1010.5
20260509222108 10 165 1.6 3.2 0.00 0.00 0.03 99 1010.5
20260509221608 10 175 3.2 3.2 0.00 0.00 0.03 99 1010.5
20260509221107 10 152 1.6 1.6 0.00 0.00 0.00 99 1010.5
20260509220608 10 147 0.0 1.6 0.00 0.00 0.00 99 1010.2
20260509220108 10 142 1.6 1.6 0.00 0.00 0.00 99 1010.5
20260509215607 10 141 1.6 1.6 0.00 0.00 1.42 99 1010.5
20260509214607 10 133 0.0 0.0 0.00 0.00 1.37 99 1010.2
20260509213607 10 135 0.0 0.0 0.00 0.00 1.35 99 1010.2
20260509213107 10 128 0.0 0.0 0.00 0.00 1.35 99 1009.8
20260509212607 10 135 0.0 0.0 0.00 0.00 1.32 99 1009.8
20260509212107 10 135 0.0 0.0 0.00 0.00 1.32 99 1009.8